Massena, NY

4:24 AM EDT on March 28, 2017 (GMT -0400)
Massena International-Richards

Weather History for KMSS - September, 2011

Change the Weather History Date:

Wednesday, September 7, 2011

  Actual Average Record
Temperature  
Mean Temperature 61 °F 62 °F  
Max Temperature 66 °F 73 °F 92 °F (2007)
Min Temperature 56 °F 50 °F 36 °F (1982)
Degree Days  
Heating Degree Days 4 5  
Month to date heating degree days 7 28  
Since 1 July heating degree days 17 103  
Cooling Degree Days 0 1  
Month to date cooling degree days 32 12  
Year to date cooling degree days 539 348  
Growing Degree Days 10 (Base 50)    
Moisture  
Dew Point 56 °F    
Average Humidity 84    
Maximum Humidity 90    
Minimum Humidity 78    
Precipitation  
Precipitation T in 0.11 in 0.79 in (2015)
Month to date precipitation 1.49 0.81  
Year to date precipitation 24.92 23.35  
Sea Level Pressure  
Sea Level Pressure 30.17 in    
Wind  
Wind Speed 6 mph (NE)    
Max Wind Speed 12 mph    
Max Gust Speed 15 mph    
Visibility 10 miles    
Events      
T = Trace of Precipitation, MM = Missing Value Source: NWS Daily Summary

Daily Weather History Graph

Daily Weather History Graph

Search for Another Location

Airport or City:

Trip Planner

Search our weather history database for the weather conditions in past years. The results will help you decide how hot, cold, wet, or windy it might be!

Date:

Astronomy

Sep. 07, 2011 Rise Set
Actual Time 6:28 AM EDT 7:25 PM EDT
Civil Twilight 5:58 AM EDT 7:55 PM EDT
Nautical Twilight 5:22 AM EDT 8:31 PM EDT
Astronomical Twilight 4:45 AM EDT 9:08 PM EDT
Moon 4:51 PM EDT (9/7) 1:31 AM EDT (9/7)
Length of Visible Light 13h 57m
Length of Day
12h 57m
Waxing Gibbous, 79% of the Moon is Illuminated
Sep 7
Waxing Gibbous
Sep 12
Full
Sep 20
Last Quarter
Sep 27
New
Oct 3
First Quarter

Hourly Weather History & Observations

Time (EDT) Temp. Dew Point Humidity Pressure Visibility Wind Dir Wind Speed Gust Speed Precip Events Conditions
12:53 AM 55.9 °F 51.1 °F 84% 30.25 in 10.0 mi NE 4.6 mph - N/A   Clear
1:53 AM 57.9 °F 52.0 °F 81% 30.24 in 10.0 mi NE 6.9 mph - N/A   Clear
2:53 AM 57.9 °F 52.0 °F 81% 30.23 in 10.0 mi NE 8.1 mph - N/A   Clear
3:53 AM 57.9 °F 52.0 °F 81% 30.21 in 10.0 mi ENE 6.9 mph - N/A   Clear
4:53 AM 57.2 °F 51.8 °F 82% 30.22 in 10.0 mi ENE 9.2 mph - N/A   Clear
5:53 AM 57.0 °F 52.0 °F 83% 30.23 in 10.0 mi NNE 4.6 mph - N/A   Mostly Cloudy
6:53 AM 57.0 °F 53.1 °F 87% 30.23 in 10.0 mi NE 5.8 mph - N/A   Clear
7:53 AM 57.9 °F 54.0 °F 87% 30.22 in 10.0 mi ENE 5.8 mph - N/A   Clear
8:53 AM 60.1 °F 54.0 °F 80% 30.22 in 10.0 mi ENE 5.8 mph - N/A   Mostly Cloudy
11:53 AM 63.0 °F 57.0 °F 81% 30.21 in 10.0 mi East 5.8 mph - N/A   Overcast
12:53 PM 63.0 °F 57.0 °F 81% 30.20 in 10.0 mi NNE 5.8 mph - N/A   Overcast
1:53 PM 62.6 °F 57.2 °F 82% 30.17 in 10.0 mi ENE 4.6 mph - N/A   Overcast
2:53 PM 64.9 °F 59.0 °F 81% 30.16 in 10.0 mi NE 11.5 mph - N/A   Overcast
3:28 PM 64.4 °F 57.2 °F 77% 30.16 in 10.0 mi North 8.1 mph - N/A   Overcast
3:41 PM 64.4 °F 59.0 °F 83% 30.15 in 10.0 mi NNE 9.2 mph - N/A   Overcast
3:53 PM 64.9 °F 57.9 °F 78% 30.16 in 10.0 mi NNE 8.1 mph - N/A   Overcast
4:53 PM 64.9 °F 59.0 °F 81% 30.15 in 10.0 mi NE 6.9 mph - N/A   Overcast
5:53 PM 64.9 °F 59.0 °F 81% 30.17 in 10.0 mi North 4.6 mph - N/A   Overcast
7:14 PM 64.4 °F 59.0 °F 83% 30.15 in 10.0 mi NE 5.8 mph - N/A   Overcast
7:53 PM 63.0 °F 59.0 °F 87% 30.15 in 10.0 mi NE 5.8 mph - N/A   Overcast
8:53 PM 63.0 °F 59.0 °F 87% 30.14 in 10.0 mi ENE 6.9 mph - N/A   Overcast
9:53 PM 63.0 °F 59.0 °F 87% 30.12 in 10.0 mi NNE 5.8 mph - N/A   Overcast
10:14 PM 62.6 °F 59.0 °F 88% 30.11 in 10.0 mi NNE 8.1 mph - N/A   Overcast
10:28 PM 62.6 °F 59.0 °F 88% 30.10 in 10.0 mi NNE 8.1 mph - N/A   Scattered Clouds
10:53 PM 62.1 °F 59.0 °F 90% 30.10 in 10.0 mi NNE 9.2 mph - N/A   Scattered Clouds
11:05 PM 62.6 °F 59.0 °F 88% 30.10 in 10.0 mi NNE 6.9 mph - N/A   Mostly Cloudy
11:53 PM 62.6 °F 59.0 °F 88% 30.11 in 10.0 mi ENE 3.5 mph - N/A   Overcast